Time,TemperatureF,DewpointF,PressureIn,WindDirection,WindDirectionDegrees,WindSpeedMPH,WindSpeedGustMPH,Humidity,HourlyPrecipIn,Conditions,Clouds,dailyrainin,SoftwareType,DateUTC
2013-07-09 00:06:00,72.0,69.0,30.03,WNW,286,1.0,4.0,89,0.00,,,0.00,weatherlink.com 1.10,2013-07-09 04:06:00,
2013-07-09 00:21:00,72.0,69.0,30.03,West,276,0.0,2.0,89,0.00,,,0.00,weatherlink.com 1.10,2013-07-09 04:21:00,
2013-07-09 00:36:00,72.0,69.0,30.03,WNW,301,0.0,0.0,89,0.00,,,0.00,weatherlink.com 1.10,2013-07-09 04:36:00,
2013-07-09 00:52:00,71.8,69.0,30.03,WNW,301,0.0,1.0,90,0.00,,,0.00,weatherlink.com 1.10,2013-07-09 04:52:00,
2013-07-09 01:07:00,71.5,69.0,30.03,WNW,301,0.0,2.0,90,0.00,,,0.00,weatherlink.com 1.10,2013-07-09 05:07:00,
2013-07-09 01:22:00,71.2,69.0,30.03,WNW,292,0.0,1.0,91,0.00,,,0.00,weatherlink.com 1.10,2013-07-09 05:22:00,
2013-07-09 01:37:00,71.2,69.0,30.02,WNW,292,0.0,0.0,91,0.00,,,0.00,weatherlink.com 1.10,2013-07-09 05:37:00,
2013-07-09 01:52:00,70.6,68.0,30.02,WNW,292,0.0,0.0,91,0.00,,,0.00,weatherlink.com 1.10,2013-07-09 05:52:00,
2013-07-09 02:07:00,70.0,68.0,30.02,WNW,292,0.0,0.0,92,0.00,,,0.00,weatherlink.com 1.10,2013-07-09 06:07:00,
2013-07-09 02:22:00,69.6,68.0,30.01,WNW,292,0.0,0.0,93,0.00,,,0.00,weatherlink.com 1.10,2013-07-09 06:22:00,
2013-07-09 02:38:00,69.3,68.0,30.01,WNW,289,0.0,2.0,94,0.00,,,0.00,weatherlink.com 1.10,2013-07-09 06:38:00,
2013-07-09 02:52:00,69.3,68.0,30.01,WNW,289,0.0,2.0,94,0.00,,,0.00,weatherlink.com 1.10,2013-07-09 06:52:00,
2013-07-09 03:07:00,69.4,68.0,30.01,WNW,289,0.0,0.0,94,0.00,,,0.00,weatherlink.com 1.10,2013-07-09 07:07:00,
2013-07-09 03:22:00,69.4,68.0,30.01,WNW,289,0.0,0.0,95,0.00,,,0.00,weatherlink.com 1.10,2013-07-09 07:22:00,
2013-07-09 03:37:00,69.3,68.0,30.01,WNW,289,0.0,0.0,94,0.00,,,0.00,weatherlink.com 1.10,2013-07-09 07:37:00,
2013-07-09 04:07:00,69.4,68.0,30.01,WNW,289,0.0,0.0,94,0.00,,,0.00,weatherlink.com 1.10,2013-07-09 08:07:00,
2013-07-09 04:22:00,69.5,68.0,30.01,WNW,289,0.0,0.0,94,0.00,,,0.00,weatherlink.com 1.10,2013-07-09 08:22:00,
2013-07-09 04:37:00,69.5,68.0,30.02,WNW,289,0.0,1.0,94,0.00,,,0.00,weatherlink.com 1.10,2013-07-09 08:37:00,
2013-07-09 04:52:00,69.8,68.0,30.01,WNW,287,0.0,2.0,93,0.00,,,0.00,weatherlink.com 1.10,2013-07-09 08:52:00,
2013-07-09 05:07:00,70.1,68.0,30.01,WNW,286,1.0,2.0,93,0.00,,,0.00,weatherlink.com 1.10,2013-07-09 09:07:00,
2013-07-09 05:22:00,70.3,68.0,30.01,WNW,295,0.0,1.0,91,0.00,,,0.00,weatherlink.com 1.10,2013-07-09 09:22:00,
2013-07-09 05:37:00,70.4,68.0,30.02,WNW,300,0.0,3.0,91,0.00,,,0.00,weatherlink.com 1.10,2013-07-09 09:37:00,
2013-07-09 05:52:00,70.6,68.0,30.02,WNW,300,0.0,1.0,91,0.00,,,0.00,weatherlink.com 1.10,2013-07-09 09:52:00,
2013-07-09 06:07:00,70.5,68.0,30.02,West,277,0.0,2.0,91,0.00,,,0.00,weatherlink.com 1.10,2013-07-09 10:07:00,
2013-07-09 06:22:00,70.7,68.0,30.03,West,267,0.0,2.0,91,0.00,,,0.00,weatherlink.com 1.10,2013-07-09 10:22:00,
2013-07-09 06:38:00,70.9,68.0,30.03,WNW,300,1.0,3.0,91,0.00,,,0.00,weatherlink.com 1.10,2013-07-09 10:38:00,
2013-07-09 06:52:00,71.2,69.0,30.03,West,280,0.0,2.0,91,0.00,,,0.00,weatherlink.com 1.10,2013-07-09 10:52:00,
2013-07-09 07:07:00,71.3,69.0,30.03,West,280,0.0,1.0,92,0.00,,,0.00,weatherlink.com 1.10,2013-07-09 11:07:00,
2013-07-09 07:22:00,71.5,69.0,30.04,West,280,0.0,1.0,92,0.00,,,0.00,weatherlink.com 1.10,2013-07-09 11:22:00,
2013-07-09 07:37:00,71.6,69.0,30.04,WSW,254,2.0,4.0,91,0.00,,,0.00,weatherlink.com 1.10,2013-07-09 11:37:00,
2013-07-09 07:52:00,71.9,69.0,30.04,West,279,2.0,5.0,89,0.00,,,0.00,weatherlink.com 1.10,2013-07-09 11:52:00,
2013-07-09 08:07:00,72.2,69.0,30.04,SSE,165,1.0,3.0,89,0.00,,,0.00,weatherlink.com 1.10,2013-07-09 12:07:00,
2013-07-09 08:22:00,72.4,69.0,30.04,SW,235,0.0,2.0,89,0.00,,,0.00,weatherlink.com 1.10,2013-07-09 12:22:00,
2013-07-09 08:37:00,73.1,69.0,30.04,WNW,283,0.0,4.0,88,0.00,,,0.00,weatherlink.com 1.10,2013-07-09 12:37:00,
2013-07-09 08:52:00,74.1,70.0,30.04,WNW,299,0.0,1.0,87,0.00,,,0.00,weatherlink.com 1.10,2013-07-09 12:52:00,
2013-07-09 09:07:00,75.4,70.0,30.04,SW,215,2.0,6.0,83,0.00,,,0.00,weatherlink.com 1.10,2013-07-09 13:07:00,
2013-07-09 09:22:00,76.2,69.0,30.04,WSW,256,6.0,8.0,79,0.00,,,0.00,weatherlink.com 1.10,2013-07-09 13:22:00,
2013-07-09 09:37:00,76.2,70.0,30.04,West,267,1.0,7.0,81,0.00,,,0.00,weatherlink.com 1.10,2013-07-09 13:37:00,
2013-07-09 09:53:00,76.7,69.0,30.04,WSW,257,3.0,7.0,78,0.00,,,0.00,weatherlink.com 1.10,2013-07-09 13:53:00,
2013-07-09 10:08:00,77.8,70.0,30.04,West,268,0.0,8.0,78,0.00,,,0.00,weatherlink.com 1.10,2013-07-09 14:08:00,
2013-07-09 10:23:00,79.4,71.0,30.04,West,273,4.0,5.0,75,0.00,,,0.00,weatherlink.com 1.10,2013-07-09 14:23:00,
2013-07-09 10:38:00,79.8,70.0,30.03,WNW,293,5.0,9.0,71,0.00,,,0.00,weatherlink.com 1.10,2013-07-09 14:38:00,
2013-07-09 10:53:00,79.7,70.0,30.03,WNW,291,3.0,5.0,71,0.00,,,0.00,weatherlink.com 1.10,2013-07-09 14:53:00,
2013-07-09 11:08:00,79.8,70.0,30.03,SW,228,0.0,4.0,73,0.00,,,0.00,weatherlink.com 1.10,2013-07-09 15:08:00,
2013-07-09 11:23:00,80.0,71.0,30.04,West,259,3.0,4.0,74,0.00,,,0.00,weatherlink.com 1.10,2013-07-09 15:23:00,
2013-07-09 11:38:00,79.5,72.0,30.04,WNW,291,2.0,5.0,77,0.00,,,0.00,weatherlink.com 1.10,2013-07-09 15:38:00,
2013-07-09 11:53:00,79.1,72.0,30.04,NW,306,0.0,7.0,78,0.00,,,0.00,weatherlink.com 1.10,2013-07-09 15:53:00,
2013-07-09 12:08:00,78.4,72.0,30.03,East,89,1.0,3.0,81,0.00,,,0.00,weatherlink.com 1.10,2013-07-09 16:08:00,
2013-07-09 12:23:00,78.4,73.0,30.04,South,183,1.0,2.0,82,0.00,,,0.00,weatherlink.com 1.10,2013-07-09 16:23:00,
2013-07-09 12:38:00,78.2,73.0,30.04,WNW,298,0.0,3.0,83,0.00,,,0.00,weatherlink.com 1.10,2013-07-09 16:38:00,
2013-07-09 12:53:00,78.4,73.0,30.04,WNW,286,0.0,2.0,83,0.00,,,0.00,weatherlink.com 1.10,2013-07-09 16:53:00,
2013-07-09 13:08:00,78.4,72.0,30.04,WNW,285,0.0,1.0,81,0.00,,,0.00,weatherlink.com 1.10,2013-07-09 17:08:00,
2013-07-09 13:23:00,78.3,73.0,30.03,SE,143,1.0,2.0,84,0.00,,,0.00,weatherlink.com 1.10,2013-07-09 17:23:00,
2013-07-09 13:38:00,78.3,74.0,30.03,SSE,147,0.0,2.0,85,0.00,,,0.00,weatherlink.com 1.10,2013-07-09 17:38:00,
2013-07-09 13:53:00,78.4,74.0,30.02,SSE,152,0.0,-999.0,85,18.16,,,0.00,weatherlink.com 1.10,2013-07-09 17:53:00,
2013-07-09 14:08:00,78.9,73.0,30.02,SW,218,0.0,4.0,83,0.00,,,0.00,weatherlink.com 1.10,2013-07-09 18:08:00,
2013-07-09 14:23:00,79.5,73.0,30.01,WNW,284,0.0,3.0,81,0.00,,,0.00,weatherlink.com 1.10,2013-07-09 18:23:00,
2013-07-09 14:38:00,79.2,73.0,30.00,South,170,3.0,5.0,81,0.00,,,0.00,weatherlink.com 1.10,2013-07-09 18:38:00,
2013-07-09 14:53:00,80.1,73.0,30.00,WNW,296,0.0,4.0,79,0.00,,,0.00,weatherlink.com 1.10,2013-07-09 18:53:00,
2013-07-09 15:08:00,81.6,73.0,30.00,ENE,71,0.0,5.0,75,0.00,,,0.00,weatherlink.com 1.10,2013-07-09 19:08:00,
2013-07-09 15:23:00,83.6,72.0,29.99,SSE,152,4.0,6.0,69,0.00,,,0.00,weatherlink.com 1.10,2013-07-09 19:23:00,
2013-07-09 15:38:00,85.3,71.0,29.98,SSE,165,1.0,9.0,62,0.00,,,0.00,weatherlink.com 1.10,2013-07-09 19:38:00,
2013-07-09 15:53:00,86.2,72.0,29.98,West,264,3.0,8.0,62,0.00,,,0.00,weatherlink.com 1.10,2013-07-09 19:53:00,
2013-07-09 16:08:00,86.4,72.0,29.96,WNW,283,4.0,8.0,62,0.00,,,0.00,weatherlink.com 1.10,2013-07-09 20:08:00,
2013-07-09 16:23:00,87.0,72.0,29.96,WSW,250,0.0,9.0,62,0.00,,,0.00,weatherlink.com 1.10,2013-07-09 20:23:00,
2013-07-09 16:38:00,86.7,72.0,29.95,SE,136,1.0,9.0,62,0.00,,,0.00,weatherlink.com 1.10,2013-07-09 20:38:00,
2013-07-09 16:53:00,87.1,72.0,29.95,SSE,160,5.0,9.0,62,0.00,,,0.00,weatherlink.com 1.10,2013-07-09 20:53:00,
2013-07-09 17:08:00,87.0,72.0,29.95,SE,125,3.0,8.0,61,0.00,,,0.00,weatherlink.com 1.10,2013-07-09 21:08:00,
2013-07-09 17:23:00,87.3,71.0,29.94,WNW,293,1.0,8.0,58,0.00,,,0.00,weatherlink.com 1.10,2013-07-09 21:23:00,
2013-07-09 17:39:00,88.3,71.0,29.93,WNW,292,2.0,7.0,57,0.00,,,0.00,weatherlink.com 1.10,2013-07-09 21:39:00,
2013-07-09 17:54:00,87.7,72.0,29.93,East,98,1.0,10.0,59,0.00,,,0.00,weatherlink.com 1.10,2013-07-09 21:54:00,
2013-07-09 18:09:00,87.1,71.0,29.93,North,350,2.0,9.0,60,0.00,,,0.00,weatherlink.com 1.10,2013-07-09 22:09:00,
2013-07-09 18:24:00,86.3,72.0,29.93,South,179,1.0,7.0,62,0.00,,,0.00,weatherlink.com 1.10,2013-07-09 22:24:00,
2013-07-09 18:39:00,85.2,72.0,29.93,WNW,287,0.0,7.0,65,0.00,,,0.00,weatherlink.com 1.10,2013-07-09 22:39:00,
2013-07-09 18:54:00,85.2,71.0,29.93,WNW,294,0.0,5.0,63,0.00,,,0.00,weatherlink.com 1.10,2013-07-09 22:54:00,
2013-07-09 19:09:00,84.9,71.0,29.93,WNW,291,2.0,6.0,64,0.00,,,0.00,weatherlink.com 1.10,2013-07-09 23:09:00,
2013-07-09 19:24:00,84.8,71.0,29.93,WNW,303,0.0,6.0,64,0.00,,,0.00,weatherlink.com 1.10,2013-07-09 23:24:00,
2013-07-09 19:39:00,84.6,72.0,29.94,SSW,200,1.0,6.0,67,0.00,,,0.00,weatherlink.com 1.10,2013-07-09 23:39:00,
2013-07-09 19:54:00,83.9,73.0,29.94,West,273,1.0,5.0,69,0.00,,,0.00,weatherlink.com 1.10,2013-07-09 23:54:00,
2013-07-09 20:09:00,82.7,72.0,29.94,SSW,194,0.0,4.0,69,0.00,,,0.00,weatherlink.com 1.10,2013-07-10 00:09:00,
2013-07-09 20:24:00,81.6,71.0,29.94,WSW,258,1.0,4.0,71,0.00,,,0.00,weatherlink.com 1.10,2013-07-10 00:24:00,
2013-07-09 20:39:00,80.3,71.0,29.94,SW,229,0.0,2.0,73,0.00,,,0.00,weatherlink.com 1.10,2013-07-10 00:39:00,
2013-07-09 20:54:00,79.1,70.0,29.95,South,170,0.0,2.0,74,0.00,,,0.00,weatherlink.com 1.10,2013-07-10 00:54:00,
2013-07-09 21:09:00,78.4,70.0,29.95,SSE,165,0.0,2.0,75,0.00,,,0.00,weatherlink.com 1.10,2013-07-10 01:09:00,
2013-07-09 21:24:00,77.8,70.0,29.96,South,180,0.0,1.0,77,0.00,,,0.00,weatherlink.com 1.10,2013-07-10 01:24:00,
2013-07-09 21:39:00,76.9,70.0,29.96,SSE,165,0.0,1.0,79,0.00,,,0.00,weatherlink.com 1.10,2013-07-10 01:39:00,
2013-07-09 21:54:00,76.1,70.0,29.97,SSW,210,0.0,1.0,80,0.00,,,0.00,weatherlink.com 1.10,2013-07-10 01:54:00,
2013-07-09 22:09:00,75.6,69.0,29.97,WNW,287,0.0,1.0,81,0.00,,,0.00,weatherlink.com 1.10,2013-07-10 02:09:00,
2013-07-09 22:24:00,75.0,70.0,29.96,WNW,287,0.0,1.0,83,0.00,,,0.00,weatherlink.com 1.10,2013-07-10 02:24:00,
2013-07-09 22:39:00,74.7,70.0,29.96,SSE,153,1.0,2.0,84,0.00,,,0.00,weatherlink.com 1.10,2013-07-10 02:39:00,
2013-07-09 22:54:00,74.6,70.0,29.96,West,265,0.0,0.0,84,0.00,,,0.00,weatherlink.com 1.10,2013-07-10 02:54:00,
2013-07-09 23:09:00,74.1,70.0,29.95,West,267,0.0,1.0,86,0.00,,,0.00,weatherlink.com 1.10,2013-07-10 03:09:00,
2013-07-09 23:24:00,73.5,70.0,29.95,West,266,0.0,0.0,87,0.00,,,0.00,weatherlink.com 1.10,2013-07-10 03:24:00,
2013-07-09 23:39:00,73.3,70.0,29.95,WSW,258,0.0,1.0,88,0.00,,,0.00,weatherlink.com 1.10,2013-07-10 03:39:00,
2013-07-09 23:54:00,73.1,69.0,29.94,WSW,246,0.0,1.0,88,0.00,,,0.00,weatherlink.com 1.10,2013-07-10 03:54:00,